Location: Bittkow
(50.3000°N, 19.0000°E)
Time: 15:55:53
(UTC+00:00)

CZ-4C R/B - Pass Details

Date: 19 September 2020
Orbit: 626 x 1376 km, 63.4° (Epoch: 30 October)

Event Time Altitude Azimuth Distance (km) Brightness Sun altitude
Exits shadow 02:32:19 - 307° (NW) 3,519 5.2 -18.3°
Reaches altitude 10° 02:34:54 10° 318° (NW) 2,716 4.7 -18.0°
Maximum altitude 02:40:41 32° 21° (NNE) 1,774 4.3 -17.1°
Drops below altitude 10° 02:47:25 10° 82° (E) 3,189 6.4 -16.1°
Sets 02:50:47 0° 92° (E) 4,251 7.1 -15.6°
